Skip Page Navigation
NASA JPL Caltech
NASA Logo - Jet Propulsion Laboratory + View the NASA Portal
+ Near-Earth Object (NEO) Program
Search JPL
JPL Home Earth Solar System Stars & Galaxies Technology
JPL Solar System Dynamics
BODIES ORBITS EPHEMERIDES TOOLS PHYSICAL DATA DISCOVERY FAQ SITE MAP
JPL Small-Body Database Browser
Search: [ help ]  
178 Belisana
Classification: Main-belt Asteroid          SPK-ID: 2000178
Ephemeris | Orbit Diagram | Orbital Elements | Physical Parameters | Discovery Circumstances ]

[ show orbit diagram ]
Orbital Elements at Epoch 2457600.5 (2016-Jul-31.0) TDB
Reference: JPL 22 (heliocentric ecliptic J2000)
 Element Value Uncertainty (1-sigma)   Units 
e .0429614273037334 4.0129e-08  
a 2.460592248684605 8.1533e-09 au
q 2.354881693668611 9.8228e-08 au
i 1.895098873832113 4.6125e-06 deg
node 51.10910026282492 0.00012793 deg
peri 212.8526746456573 0.00013532 deg
M 119.486034005775 4.8259e-05 deg
tp 2457132.578985804772
(2015-Apr-20.07898580)
0.00018892 JED
period 1409.801291941287
3.86
7.0072e-06
1.918e-08
d
yr
n .2553551355484165 1.2692e-09 deg/d
Q 2.566302803700598 8.5036e-09 au
  Orbit Determination Parameters
   # obs. used (total)      1724  
   data-arc span      47482 days (130.00 yr)  
   first obs. used      1885-12-11  
   last obs. used      2015-12-12  
   planetary ephem.      DE431  
   SB-pert. ephem.      SB431-BIG16  
   condition code      0  
   fit RMS      .53807  
   data source      ORB  
   producer      Otto Matic  
   solution date      2016-Jan-04 12:31:34  

Additional Information
 Earth MOID = 1.33924 au 
 Jupiter MOID = 2.44325 au 
 T_jup = 3.488 
[ show covariance matrix ]

Ephemeris | Orbit Diagram | Orbital Elements | Physical Parameters | Discovery Circumstances ]

Physical Parameter Table
Parameter Symbol Value Units Sigma Reference Notes
absolute magnitude H 9.4 mag n/a MPO350797  
diameter diameter 35.81 km 0.9 IRAS-A-FPA-3-RDR-IMPS-V6.0 IRAS observations used: 16
rotation period rot_per 12.323 h n/a LCDB (Rev. 2016-February); Warner et al., 2009 Published Reference List:
[Harris, A.W.; Young, J.W.; Dockweiler, T.; Gibson, J.; et al. (1992) Icarus 95, 115-147.]
[Behrend, R. (2006) Observatoire de Geneve web site, http://obswww.unige.ch/~behrend/page_cou.html]
[Pilcher, F.; Benishek, V.; Oey, J. (2009) Minor Planet Bul. 36, 68.]
[Behrend, R. (2012) Observatoire de Geneve web site, http://obswww.unige.ch/~behrend/page_cou.html]
geometric albedo albedo 0.2438   0.013 IRAS-A-FPA-3-RDR-IMPS-V6.0 IRAS observations used: 16
B-V BV .904 mag .033 EAR-A-5-DDR-UBV-MEAN-VALUES-V1.1 #obs=4; phase (min.=3.94, mean=9.96, max.=20.45) deg.
U-B UB .486 mag .048 EAR-A-5-DDR-UBV-MEAN-VALUES-V1.1 #obs=3; phase (min.=3.94, mean=6.47, max.=10.02) deg.
Tholen spectral type spec_T S   n/a EAR-A-5-DDR-TAXONOMY-V4.0 used 2 color indices
SMASSII spectral type spec_B S   n/a EAR-A-5-DDR-TAXONOMY-V4.0 based on a high-resolution spectrum by Xu et al. (1995) or Bus and Binzel (2002)

178 Belisana          Discovered 1877-Nov-06 by Palisa, J. at Pola
Reference: DISCOVERY.DBLast Updated: 2003-08-29

Alternate Designations
 1935 UA1 = A899 LE = A904 UA 
Ephemeris | Orbit Diagram | Orbital Elements | Physical Parameters | Discovery Circumstances ]
ABOUT SSD CREDITS/AWARDS PRIVACY/COPYRIGHT GLOSSARY LINKS
FirstGov 2016-May-02 21:18 UT
(server date/time)  
NASA Home Page
Site Manager:   Ryan S. Park
Webmaster  Alan B. Chamberlin